Total_Precipitation_Accumulation
2.09 2.25 2.54 2.77 2.93 3.09 3.32 3.63 4.05 4.38 4.48 4.31 4.23 4.17 3.86 3.54 3.18 2.90 2.86 2.98 2.89 2.96 3.30 3.00 3.40 3.46 3.62 3.79 3.79 3.99 3.89 3.66 3.74 3.69 3.19 2.63 2.29 2.21 2.07 2.09 2.28 2.20 2.25
2.15 2.34 2.59 2.72 2.72 2.91 3.21 3.63 4.08 4.39 4.29 4.39 4.60 4.55 4.31 3.62 3.25 3.07 3.02 2.96 2.87 2.85 2.94 3.41 3.39 3.48 3.66 3.68 3.62 3.73 3.58 3.32 3.61 3.78 3.63 2.98 2.60 2.20 1.81 2.02 2.04 2.15 2.38
1.81 1.95 2.11 2.30 2.53 2.94 3.35 3.62 3.95 4.12 4.15 4.35 4.48 4.18 3.98 3.49 3.36 3.35 3.19 3.03 3.00 2.99 3.10 3.33 3.42 3.44 3.29 3.44 3.62 3.46 3.41 3.31 3.37 3.56 3.66 3.21 2.72 2.26 1.93 1.80 1.86 2.22 2.44
1.68 1.81 1.85 2.14 2.50 2.89 3.46 3.86 3.91 3.99 3.88 3.99 4.09 3.92 3.58 3.33 3.24 3.23 3.00 2.89 2.81 2.81 2.91 3.03 3.21 3.31 3.20 3.29 3.20 3.23 3.34 3.32 3.18 3.31 3.24 3.10 2.91 2.74 2.32 1.93 1.79 1.98 2.16
1.61 1.84 1.78 1.95 2.21 2.62 3.02 3.42 3.77 3.85 3.66 3.59 3.63 3.77 3.61 3.34 3.12 3.02 2.92 2.85 2.82 2.65 2.62 2.75 2.96 3.07 2.96 2.90 3.11 3.35 3.28 3.12 3.03 3.14 3.14 3.29 3.16 2.86 2.66 2.22 1.98 1.86 1.70
1.60 1.76 2.01 2.05 2.15 2.43 2.77 3.05 3.29 3.29 3.21 3.16 3.20 3.31 3.37 3.34 3.10 2.89 2.90 2.86 2.72 2.56 2.49 2.53 2.80 2.88 2.80 2.74 2.86 2.92 2.95 2.93 3.03 3.04 2.95 3.11 3.11 2.99 2.92 2.46 2.12 1.92 1.56
1.74 1.78 1.95 2.03 2.10 2.23 2.40 2.54 2.64 2.68 2.65 2.68 2.66 2.66 2.77 2.84 2.71 2.64 2.70 2.70 2.58 2.46 2.43 2.40 2.51 2.44 2.40 2.47 2.71 2.71 2.64 2.68 2.80 2.77 2.79 2.73 2.63 2.72 2.78 2.65 2.21 1.94 1.54
1.53 1.62 1.70 1.62 1.63 1.73 1.86 2.01 2.12 2.14 2.09 2.17 2.25 2.26 2.45 2.45 2.43 2.56 2.48 2.51 2.45 2.41 2.34 2.24 2.17 2.10 2.09 2.13 2.43 2.55 2.48 2.53 2.55 2.47 2.65 2.48 2.31 2.49 2.52 2.55 2.60 2.36 2.05
1.22 1.21 1.24 1.30 1.43 1.49 1.52 1.60 1.78 1.80 1.74 1.79 1.95 2.01 2.06 2.17 2.26 2.33 2.24 2.15 2.18 2.08 2.11 2.08 1.98 1.91 1.96 2.03 2.11 2.16 2.13 2.24 2.26 2.33 2.35 2.18 2.15 2.26 2.27 2.44 2.66 2.67 2.48
1.07 1.10 1.07 1.12 1.16 1.21 1.30 1.46 1.60 1.74 1.75 1.70 1.74 1.69 1.77 1.88 2.06 2.11 2.02 2.04 2.10 2.06 1.98 1.91 1.82 1.79 1.80 1.83 1.93 1.90 1.92 1.93 1.95 2.11 2.16 2.11 2.09 2.22 2.18 2.26 2.45 2.62 2.66
0.83 0.91 0.89 0.93 0.98 1.04 1.14 1.30 1.59 1.74 1.68 1.52 1.54 1.60 1.58 1.68 1.80 1.85 1.81 1.91 2.00 2.12 2.07 1.98 1.91 1.77 1.69 1.73 1.77 1.67 1.77 1.81 1.80 1.82 1.85 1.87 1.99 2.16 2.17 2.22 2.26 2.49 2.74
0.66 0.77 0.82 0.79 0.83 0.88 0.96 1.12 1.33 1.49 1.50 1.46 1.47 1.57 1.66 1.66 1.63 1.63 1.65 1.70 1.74 1.78 1.78 1.75 1.75 1.74 1.77 1.82 1.74 1.68 1.68 1.73 1.69 1.75 1.86 1.77 1.94 2.12 2.09 2.20 2.23 2.40 2.70
0.74 0.72 0.81 0.81 0.76 0.75 0.88 1.06 1.11 1.30 1.48 1.50 1.48 1.57 1.55 1.52 1.57 1.71 1.76 1.73 1.73 1.72 1.70 1.68 1.67 1.66 1.81 1.93 1.88 1.81 1.81 1.83 1.72 1.80 1.84 1.72 1.82 1.90 1.93 2.03 2.14 2.32 2.52
0.77 0.74 0.74 0.73 0.63 0.62 0.72 0.90 0.99 1.12 1.28 1.44 1.53 1.66 1.66 1.67 1.76 1.85 1.90 1.85 1.79 1.81 1.84 1.80 1.73 1.72 1.69 1.73 1.84 1.91 1.88 1.83 1.76 1.77 1.72 1.61 1.60 1.67 1.81 1.83 1.99 2.20 2.40
0.66 0.70 0.66 0.57 0.55 0.56 0.63 0.79 0.92 1.02 1.15 1.41 1.60 1.72 1.77 1.77 1.79 1.78 1.84 1.84 1.74 1.68 1.85 1.85 1.80 1.77 1.69 1.58 1.66 1.77 1.70 1.72 1.69 1.64 1.48 1.31 1.34 1.43 1.49 1.48 1.79 2.05 2.17
0.63 0.58 0.61 0.60 0.61 0.54 0.54 0.60 0.75 0.90 1.04 1.24 1.40 1.50 1.63 1.75 1.73 1.67 1.70 1.69 1.72 1.73 1.77 1.76 1.78 1.70 1.43 1.45 1.44 1.41 1.42 1.48 1.51 1.53 1.51 1.36 1.22 1.16 1.21 1.21 1.37 1.66 1.81
0.85 0.82 0.75 0.76 0.67 0.55 0.57 0.59 0.63 0.79 1.01 1.14 1.22 1.33 1.48 1.59 1.62 1.55 1.61 1.69 1.70 1.67 1.60 1.55 1.56 1.53 1.45 1.31 1.16 1.12 1.24 1.39 1.44 1.47 1.49 1.28 1.14 1.18 1.08 1.15 1.22 1.27 1.34
0.62 0.78 0.85 0.86 0.84 0.74 0.74 0.75 0.75 0.86 1.02 1.14 1.25 1.35 1.48 1.52 1.55 1.55 1.52 1.57 1.56 1.56 1.58 1.47 1.44 1.53 1.42 1.31 1.09 0.97 0.96 1.14 1.22 1.23 1.26 1.27 1.27 1.20 1.21 1.19 1.21 1.15 1.16
0.61 0.69 0.76 0.85 1.00 1.02 0.97 0.98 1.04 1.10 1.09 1.16 1.29 1.43 1.55 1.60 1.60 1.61 1.57 1.58 1.57 1.53 1.53 1.51 1.53 1.54 1.47 1.37 1.16 1.07 1.10 1.23 1.26 1.28 1.28 1.33 1.38 1.35 1.19 1.16 1.20 1.23 1.27
0.60 0.67 0.71 0.75 0.92 1.00 0.95 0.98 1.06 1.14 1.14 1.21 1.34 1.47 1.55 1.66 1.64 1.71 1.74 1.71 1.62 1.55 1.53 1.60 1.61 1.54 1.51 1.36 1.15 1.13 1.20 1.38 1.48 1.59 1.58 1.45 1.31 1.27 1.13 1.16 1.27 1.25 1.25
0.58 0.57 0.65 0.86 0.95 0.98 0.98 1.05 1.08 1.16 1.21 1.35 1.43 1.55 1.64 1.69 1.67 1.73 1.78 1.76 1.71 1.73 1.65 1.55 1.56 1.57 1.45 1.22 0.97 0.97 1.05 1.29 1.51 1.55 1.52 1.39 1.20 1.07 1.04 1.03 1.12 1.20 1.14
0.63 0.72 0.86 0.98 0.98 1.00 1.12 1.23 1.30 1.28 1.41 1.51 1.49 1.58 1.73 1.59 1.58 1.78 1.85 1.85 1.87 1.85 1.75 1.64 1.56 1.59 1.57 1.27 1.03 0.96 1.01 1.18 1.45 1.62 1.54 1.37 1.20 1.08 1.03 0.91 0.97 1.02 0.96
0.68 0.78 0.92 0.97 0.99 1.03 1.18 1.42 1.45 1.40 1.44 1.54 1.57 1.59 1.67 1.79 1.86 1.90 1.94 1.90 1.84 1.83 1.79 1.75 1.66 1.65 1.70 1.63 1.33 1.15 1.11 1.19 1.26 1.39 1.52 1.39 1.14 1.00 0.94 0.92 0.85 0.77 0.78
0.68 0.74 0.90 0.95 1.07 1.16 1.31 1.57 1.61 1.57 1.59 1.65 1.72 1.72 1.72 1.77 1.95 2.11 2.10 2.02 1.87 1.87 1.89 1.81 1.80 1.81 1.84 1.75 1.54 1.37 1.25 1.24 1.23 1.24 1.24 1.21 1.10 0.94 0.95 0.97 0.86 0.77 0.83
0.70 0.79 0.97 1.11 1.17 1.22 1.30 1.46 1.61 1.76 1.83 1.84 1.83 1.85 1.88 1.92 2.00 2.00 1.96 1.94 1.87 1.77 1.81 1.82 1.82 1.83 1.80 1.66 1.53 1.44 1.39 1.35 1.28 1.20 1.24 1.20 1.22 1.12 1.06 1.09 1.05 1.00 1.03
0.93 0.94 0.98 1.12 1.21 1.26 1.35 1.47 1.68 1.96 2.17 2.14 2.05 2.03 2.02 2.04 2.01 2.01 1.84 1.68 1.60 1.52 1.44 1.47 1.48 1.45 1.42 1.36 1.26 1.23 1.20 1.17 1.15 1.07 1.19 1.31 1.32 1.29 1.28 1.27 1.25 1.23 1.20